Iowa City, IA

3:49 AM CDT on October 17, 2017 (GMT -0500)
Iowa City Municipal

Weather History for KIOW - December, 2013

Change the Weather History Date:

Saturday, December 14, 2013

  Actual Average Record
Temperature  
Mean Temperature 21 °F 25 °F  
Max Temperature 26 °F 33 °F 60 °F (1975)
Min Temperature 15 °F 18 °F -13 °F (1985)
Degree Days  
Heating Degree Days 44 40  
Month to date heating degree days 634 521  
Since 1 July heating degree days 2002 1828  
Cooling Degree Days 0 0  
Month to date cooling degree days 0 0  
Year to date cooling degree days 1064 912  
Moisture  
Dew Point 18 °F    
Average Humidity 81    
Maximum Humidity 88    
Minimum Humidity 73    
Precipitation  
Precipitation T in 0.05 in 0.64 in (2011)
Month to date precipitation 0.16 0.89  
Year to date precipitation 34.58 35.65  
Sea Level Pressure  
Sea Level Pressure 30.09 in    
Wind  
Wind Speed 12 mph (NNW)    
Max Wind Speed 20 mph    
Max Gust Speed 24 mph    
Visibility 8 miles    
Events Snow    
T = Trace of Precipitation, MM = Missing Value Source: NWS Daily Summary

Daily Weather History Graph

Daily Weather History Graph

Search for Another Location

Airport or City:

Trip Planner

Search our weather history database for the weather conditions in past years. The results will help you decide how hot, cold, wet, or windy it might be!

Date:

Astronomy

Dec. 14, 2013 Rise Set
Actual Time 7:25 AM CST 4:36 PM CST
Civil Twilight 6:54 AM CST 5:08 PM CST
Nautical Twilight 6:19 AM CST 5:42 PM CST
Astronomical Twilight 5:45 AM CST 6:16 PM CST
Moon 2:59 PM CST (12/14) 4:45 AM CST (12/14)
Length of Visible Light 10h 13m
Length of Day
9h 11m
Waxing Gibbous, 94% of the Moon is Illuminated
Dec 14
Waxing Gibbous
Dec 17
Full
Dec 25
Last Quarter
Jan 1
New
Jan 7
First Quarter

Hourly Weather History & Observations

Time (CST) Temp. Windchill Dew Point Humidity Pressure Visibility Wind Dir Wind Speed Gust Speed Precip Events Conditions
12:52 AM 26.1 °F 14.0 °F 21.9 °F 84% 30.07 in 7.0 mi NE 15.0 mph 20.7 mph N/A   Overcast
1:52 AM 25.0 °F 12.2 °F 21.9 °F 88% 30.06 in 6.0 mi NNE 16.1 mph 23.0 mph N/A   Overcast
2:52 AM 24.1 °F 12.0 °F 21.0 °F 88% 30.07 in 9.0 mi NNE 13.8 mph - N/A   Overcast
3:52 AM 24.1 °F 12.0 °F 21.0 °F 88% 30.06 in 9.0 mi NNE 13.8 mph 21.9 mph N/A   Overcast
4:52 AM 23.0 °F 10.6 °F 19.9 °F 88% 30.06 in 10.0 mi NNE 13.8 mph - N/A   Overcast
5:52 AM 23.0 °F 11.7 °F 19.9 °F 88% 30.06 in 10.0 mi NNE 11.5 mph - N/A   Overcast
6:52 AM 24.1 °F 13.1 °F 21.0 °F 88% 30.09 in 7.0 mi NNE 11.5 mph - N/A   Overcast
7:52 AM 24.1 °F 12.5 °F 21.0 °F 88% 30.09 in 4.0 mi North 12.7 mph - N/A   Overcast
8:15 AM 24.8 °F 13.4 °F 19.4 °F 80% 30.06 in 7.0 mi North 12.7 mph - N/A   Overcast
8:39 AM 24.8 °F 12.9 °F 19.4 °F 80% 30.07 in 2.5 mi North 13.8 mph - 0.00 in Snow Light Snow
8:47 AM 24.8 °F 13.4 °F 19.4 °F 80% 30.07 in 2.5 mi North 12.7 mph - 0.00 in Snow Light Snow
8:52 AM 24.1 °F 13.1 °F 19.9 °F 84% 30.10 in 2.5 mi North 11.5 mph - 0.00 in Snow Light Snow
8:59 AM 24.8 °F 14.0 °F 19.4 °F 80% 30.07 in 2.5 mi North 11.5 mph - 0.00 in Snow Light Snow
9:13 AM 24.8 °F 13.4 °F 19.4 °F 80% 30.08 in 3.0 mi North 12.7 mph - 0.00 in   Haze
9:49 AM 24.8 °F 13.4 °F 19.4 °F 80% 30.08 in 2.5 mi North 12.7 mph - 0.00 in Snow Light Snow
9:52 AM 25.0 °F 13.6 °F 19.9 °F 81% 30.11 in 2.5 mi North 12.7 mph 18.4 mph 0.00 in Snow Light Snow
10:05 AM 24.8 °F 12.9 °F 19.4 °F 80% 30.08 in 3.0 mi North 13.8 mph - 0.00 in   Haze
10:33 AM 24.8 °F 14.0 °F 19.4 °F 80% 30.09 in 9.0 mi North 11.5 mph - 0.00 in   Overcast
10:52 AM 26.1 °F 16.2 °F 19.9 °F 78% 30.11 in 10.0 mi North 10.4 mph - 0.00 in   Overcast
11:52 AM 25.0 °F 13.6 °F 19.0 °F 78% 30.10 in 9.0 mi NNW 12.7 mph - N/A   Overcast
12:16 PM 24.8 °F 16.1 °F 19.4 °F 80% 30.06 in 10.0 mi North 8.1 mph - N/A   Overcast
12:50 PM 24.8 °F 14.6 °F 19.4 °F 80% 30.05 in 10.0 mi North 10.4 mph - N/A   Overcast
12:52 PM 25.0 °F 14.2 °F 18.0 °F 75% 30.08 in 10.0 mi North 11.5 mph - N/A   Overcast
1:52 PM 26.1 °F 16.8 °F 19.0 °F 75% 30.09 in 10.0 mi NW 9.2 mph - N/A   Overcast
2:07 PM 24.8 °F 14.0 °F 19.4 °F 80% 30.06 in 10.0 mi NNW 11.5 mph - N/A   Overcast
2:39 PM 24.8 °F 14.0 °F 19.4 °F 80% 30.06 in 10.0 mi NNW 11.5 mph - N/A   Overcast
2:47 PM 24.8 °F 12.9 °F 17.6 °F 74% 30.06 in 10.0 mi NW 13.8 mph - N/A   Overcast
2:52 PM 25.0 °F 14.2 °F 19.0 °F 78% 30.09 in 10.0 mi NNW 11.5 mph - N/A   Overcast
3:52 PM 24.1 °F 12.0 °F 18.0 °F 77% 30.11 in 10.0 mi NW 13.8 mph - N/A   Overcast
4:52 PM 21.9 °F 8.7 °F 16.0 °F 78% 30.12 in 10.0 mi NW 15.0 mph 23.0 mph N/A   Overcast
5:52 PM 21.9 °F 10.4 °F 16.0 °F 78% 30.13 in 10.0 mi WNW 11.5 mph - N/A   Overcast
6:02 PM 21.2 °F 8.9 °F 15.8 °F 80% 30.10 in 10.0 mi NW 12.7 mph - N/A   Overcast
6:52 PM 19.9 °F 7.3 °F 12.9 °F 74% 30.15 in 10.0 mi WNW 12.7 mph - N/A   Overcast
7:52 PM 19.0 °F 9.0 °F 12.9 °F 77% 30.15 in 10.0 mi WNW 8.1 mph - N/A   Overcast
8:52 PM 17.1 °F 5.8 °F 12.0 °F 81% 30.16 in 10.0 mi WNW 9.2 mph - N/A   Clear
9:52 PM 15.1 °F 2.5 °F 10.0 °F 80% 30.15 in 10.0 mi West 10.4 mph - N/A   Clear
10:21 PM 15.8 °F 4.2 °F 8.6 °F 73% 30.12 in 10.0 mi WNW 9.2 mph - N/A   Mostly Cloudy
10:52 PM 15.1 °F 3.3 °F 9.0 °F 77% 30.15 in 10.0 mi West 9.2 mph - N/A   Overcast
11:52 PM 16.0 °F 1.1 °F 10.0 °F 77% 30.14 in 6.0 mi WNW 15.0 mph - 0.00 in Snow Light Snow